This is the latest recevied weather packets stored in our database for station/object K3FAZ. If no packets are shown the sender has not sent any weather packets the latest 10 day(s).
| Time | Temp. | Humidity | Pressure | Rain* | Wind** | Luminosity | Snow |
|---|---|---|---|---|---|---|---|
| 1777741053 | 6.67° C | 77% | 1018.1 hPa | 0 mm | - | 211 W/m² | - |
| 1777740751 | 6.11° C | 78% | 1018.1 hPa | 0 mm | - | 264 W/m² | - |
| 1777740447 | 6.11° C | 78% | 1018.3 hPa | 0 mm | - | 168 W/m² | - |
| 1777740145 | 6.67° C | 78% | 1018.2 hPa | 0 mm | - | 290 W/m² | - |
| 1777739840 | 6.67° C | 78% | 1018.1 hPa | 0 mm | - | 419 W/m² | - |
| 1777739537 | 6.67° C | 79% | 1018.2 hPa | 0 mm | - | 383 W/m² | - |
| 1777739233 | 6.67° C | 79% | 1018.1 hPa | 0 mm | - | 320 W/m² | - |
| 1777738930 | 6.11° C | 80% | 1018.2 hPa | 0 mm | - | 419 W/m² | - |
| 1777738628 | 5.56° C | 82% | 1018.3 hPa | 0 mm | - | 342 W/m² | - |
| 1777738324 | 5.56° C | 84% | 1018.4 hPa | 0 mm | - | 359 W/m² | - |
| 1777738022 | 6.11° C | 82% | 1018.5 hPa | 0 mm | - | 207 W/m² | - |
| 1777737722 | 6.11° C | 81% | 1018.3 hPa | 0 mm | - | 187 W/m² | - |
| 1777737419 | 6.11° C | 83% | 1018.5 hPa | 0 mm | - | 431 W/m² | - |
| 1777737116 | 5.56° C | 85% | 1018.4 hPa | 0 mm | - | 341 W/m² | - |
| 1777736812 | 5.56° C | 87% | 1018.2 hPa | 0 mm | - | 359 W/m² | - |
| 1777736183 | 5° C | 89% | 1018.4 hPa | 0 mm | - | 645 W/m² | - |
| 1777735880 | 5° C | 91% | 1018.2 hPa | 0 mm | - | 439 W/m² | - |
| 1777735578 | 4.44° C | 92% | 1018.2 hPa | 0 mm | - | 278 W/m² | - |
| 1777735275 | 4.44° C | 93% | 1018.3 hPa | 0 mm | - | 209 W/m² | - |
| 1777734972 | 4.44° C | 93% | 1018.3 hPa | 0 mm | - | 210 W/m² | - |
| 1777734670 | 3.89° C | 94% | 1018.3 hPa | 0 mm | - | 165 W/m² | - |
| 1777734367 | 3.89° C | 94% | 1018.2 hPa | 0 mm | - | 158 W/m² | - |
| 1777734063 | 3.89° C | 95% | 1018.2 hPa | 0 mm | - | 215 W/m² | - |
| 1777733759 | 4.44° C | 96% | 1018.2 hPa | 0 mm | - | 294 W/m² | - |
| 1777733456 | 3.89° C | 96% | 1018.2 hPa | 0 mm | - | 325 W/m² | - |
* Rain latest hour (hover to see other rain measurements)
** Current wind speed in m/s (hover to see current wind gust speed)